Flag for Canada Weather past 2 weeks in Cornwall, Ontario, Canada

Now
69 °F

Mild.


Feels Like: 69 °F
Forecast: 61 / 74 °F
Wind: 7 mph from Northwest

Location: St Anicet

Current Time: Aug 1, 2015 at 12:30:46 AM

Latest Report: Jul 31, 2015 at 11:00 PM


Visibility: N/A

Pressure: 29.72 "Hg

Humidity: 79%

Dew point: 63 °F

Location of CornwallLocation

Historic Weather in Cornwall — Graph

°F

Cornwall temperature yesterday

Maximum temperature yesterday: 81 °F (at 4:00 PM)
Minimum temperature yesterday: 64 °F (at 4:00 AM)
Average temperature yesterday: 72 °F

Past Weeks' High & Low Weather Summary

 TemperatureHumidityPressure
High91 °F (Jul 29, 4:00 PM)100% (Jul 16, 11:00 PM)30.07 "Hg (Jul 16, 11:00 PM)
Low45 °F (Jul 17, 5:00 AM)49% (Jul 17, 12:00 PM)29.50 "Hg (Jul 21, 3:00 PM)
Average71 °F80%29.81 "Hg
* Reported Jul 16 11:00 PM — Jul 31 11:00 PM, Cornwall, Weather by CustomWeather, © 2015

Note: Actual official high and low records may vary slightly from our data, if they occured in-between our weather recording intervals... More about our weather records

Advertising

Cornwall weather history for previous 24 hours

 ConditionsComfort  
Time TempWeatherWind HumidityBarometerVisibility
11:00 PM
Fri, Jul 31
69 °FMild.7 mph79%29.72 "HgN/A
10:00 PM69 °FMild.2 mph86%29.69 "HgN/A
9:00 PM73 °FMild.1 mph66%29.68 "HgN/A
8:00 PM76 °FMild.5 mph52%29.68 "HgN/A
7:00 PM79 °FWarm.7 mph52%29.67 "HgN/A
6:00 PM81 °FWarm.9 mph51%29.68 "HgN/A
5:00 PM81 °FWarm.10 mph52%29.69 "HgN/A
4:00 PM81 °FWarm.8 mph51%29.71 "HgN/A
3:00 PM81 °FWarm.8 mph54%29.73 "HgN/A
2:00 PM80 °FWarm.10 mph53%29.75 "HgN/A
1:00 PM78 °FWarm.12 mph56%29.75 "HgN/A
12:00 PM74 °FMild.10 mph65%29.77 "HgN/A
11:00 AM75 °FMild.9 mph65%29.78 "HgN/A
10:00 AM72 °FMild.8 mph69%29.77 "HgN/A
9:00 AM71 °FMild.12 mph71%29.76 "HgN/A
8:00 AM70 °FMild.9 mph74%29.75 "HgN/A
7:00 AM66 °FMild.7 mph78%29.73 "HgN/A
6:00 AM64 °FMild.6 mph83%29.71 "HgN/A
5:00 AM64 °FMild.6 mph82%29.70 "HgN/A
4:00 AM64 °FMild.5 mph82%29.70 "HgN/A
3:00 AM64 °FMild.3 mph85%29.70 "HgN/A
2:00 AM66 °FMild.5 mph83%29.71 "HgN/A
1:00 AM68 °FMild.5 mph80%29.71 "HgN/A
12:00 AM69 °FMild.5 mph79%29.71 "HgN/A
Weather by CustomWeather, © 2015

See weather overviewHow to use our weather pages